This is the latest recevied weather packets stored in our database for station/object N7BTW-13. If no packets are shown the sender has not sent any weather packets the latest 10 day(s).
| Time | Temp. | Humidity | Pressure | Rain* | Wind** | Luminosity | Snow |
|---|---|---|---|---|---|---|---|
| 1777538407 | 8.89° C | 93% | 1020.5 hPa | 0 mm | - | - | - |
| 1777537808 | 8.89° C | 94% | 1020.5 hPa | 0 mm | - | - | - |
| 1777537209 | 9.44° C | 94% | 1020.5 hPa | 0 mm | - | - | - |
| 1777536606 | 9.44° C | 94% | 1020.5 hPa | 0 mm | - | - | - |
| 1777535408 | 10.56° C | 91% | 1020.4 hPa | 0 mm | - | - | - |
| 1777534806 | 11.11° C | 89% | 1020.3 hPa | 0 mm | - | - | - |
| 1777534207 | 10.56° C | 89% | 1020.3 hPa | 0 mm | - | - | - |
| 1777533611 | 10.56° C | 90% | 1020.2 hPa | 0 mm | - | - | - |
| 1777533006 | 10.56° C | 90% | 1020.3 hPa | 0 mm | - | - | - |
| 1777532415 | 10.56° C | 88% | 1020.3 hPa | 0 mm | - | - | - |
| 1777531807 | 10.56° C | 87% | 1020.4 hPa | 0 mm | - | - | - |
| 1777531207 | 11.11° C | 86% | 1020.4 hPa | 0 mm | - | - | - |
| 1777530608 | 11.11° C | 85% | 1020.3 hPa | 0 mm | - | - | - |
| 1777530007 | 11.11° C | 84% | 1020.4 hPa | 0 mm | - | - | - |
| 1777529407 | 11.11° C | 81% | 1020.5 hPa | 0 mm | - | - | - |
| 1777528809 | 11.11° C | 81% | 1020.5 hPa | 0 mm | - | - | - |
| 1777528207 | 11.67° C | 79% | 1020.5 hPa | 0 mm | - | - | - |
| 1777527607 | 11.67° C | 76% | 1020.6 hPa | 0 mm | - | - | - |
| 1777527007 | 12.22° C | 74% | 1020.6 hPa | 0 mm | - | - | - |
| 1777526413 | 12.78° C | 76% | 1020.6 hPa | 0 mm | - | - | - |
| 1777525808 | 12.78° C | 74% | 1020.6 hPa | 0 mm | - | - | - |
| 1777525207 | 12.78° C | 73% | 1020.7 hPa | 0 mm | - | - | - |
| 1777524608 | 12.78° C | 72% | 1020.7 hPa | 0 mm | - | - | - |
| 1777524007 | 13.33° C | 72% | 1020.6 hPa | 0 mm | - | - | - |
| 1777523406 | 13.33° C | 71% | 1020.7 hPa | 0 mm | - | - | - |
* Rain latest hour (hover to see other rain measurements)
** Current wind speed in m/s (hover to see current wind gust speed)